| time (UTC) | temp F | wind direction | speed MPH | gust MPH | rain 1hr in | rain 24hr in | rain mn in | humidity % | barometer mb |
| 20260904041621 | 79 | 148 | 0.0 | 1.0 | 0.00 | 0.00 | 0.00 | 37 | 1016.5 |
| 20260904040134 | 82 | 80 | 0.0 | 1.0 | 0.00 | 0.00 | 0.00 | 33 | 1016.5 |
| 20260904034625 | 83 | 80 | 0.0 | 1.0 | 0.00 | 0.00 | 0.00 | 32 | 1016.4 |
| 20260904033140 | 83 | 80 | 0.0 | 3.0 | 0.00 | 0.00 | 0.00 | 32 | 1016.2 |
| 20260904031653 | 84 | 92 | 3.0 | 12.0 | 0.00 | 0.00 | 0.00 | 31 | 1016.2 |
| 20260904030127 | 84 | 109 | 10.0 | 17.0 | 0.00 | 0.00 | 0.00 | 31 | 1016.1 |
| 20260904024638 | 85 | 95 | 13.0 | 19.0 | 0.00 | 0.00 | 0.00 | 29 | 1015.9 |
| 20260904023152 | 84 | 92 | 11.0 | 17.0 | 0.00 | 0.00 | 0.00 | 31 | 1015.6 |
| 20260904021647 | 87 | 139 | 3.0 | 13.0 | 0.00 | 0.00 | 0.00 | 30 | 1015.2 |
| 20260904020139 | 86 | 116 | 11.0 | 16.0 | 0.00 | 0.00 | 0.00 | 31 | 1015.2 |
| 20260904014634 | 87 | 258 | 0.0 | 0.0 | 0.00 | 0.00 | 0.00 | 26 | 1014.7 |
| 20260904013126 | 88 | 258 | 0.0 | 0.0 | 0.00 | 0.00 | 0.00 | 27 | 1014.8 |
| 20260904011622 | 89 | 278 | 2.0 | 4.0 | 0.00 | 0.00 | 0.00 | 26 | 1014.7 |
| 20260904010135 | 90 | 144 | 0.0 | 1.0 | 0.00 | 0.00 | 0.00 | 25 | 1014.6 |
| 20260904004626 | 91 | 143 | 0.0 | 1.0 | 0.00 | 0.00 | 0.00 | 23 | 1014.6 |
| 20260904003123 | 92 | 143 | 1.0 | 5.0 | 0.00 | 0.00 | 0.00 | 22 | 1014.4 |
| 20260904001656 | 93 | 220 | 0.0 | 4.0 | 0.00 | 0.00 | 0.00 | 21 | 1014.6 |
| 20260904000129 | 92 | 305 | 1.0 | 11.0 | 0.00 | 0.00 | 0.00 | 23 | 1014.6 |
| 20260903234640 | 94 | 139 | 9.0 | 15.0 | 0.00 | 0.00 | 0.00 | 21 | 1014.6 |
| 20260903233132 | 94 | 94 | 0.0 | 4.0 | 0.00 | 0.00 | 0.00 | 20 | 1014.6 |
| 20260903231627 | 95 | 119 | 3.0 | 11.0 | 0.00 | 0.00 | 0.00 | 20 | 1014.6 |
| 20260903230140 | 95 | 100 | 5.0 | 8.0 | 0.00 | 0.00 | 0.00 | 20 | 1014.8 |
| 20260903224635 | 94 | 90 | 2.0 | 6.0 | 0.00 | 0.00 | 0.00 | 20 | 1014.7 |
| 20260903223126 | 95 | 224 | 6.0 | 9.0 | 0.00 | 0.00 | 0.00 | 20 | 1015.0 |
| 20260903221702 | 95 | 231 | 2.0 | 8.0 | 0.00 | 0.00 | 0.00 | 20 | 1015.1 |
| 20260903220133 | 95 | 304 | 5.0 | 12.0 | 0.00 | 0.00 | 0.00 | 20 | 1015.2 |
| 20260903214624 | 96 | 258 | 6.0 | 11.0 | 0.00 | 0.00 | 0.00 | 20 | 1015.3 |
| 20260903213201 | 96 | 306 | 5.0 | 11.0 | 0.00 | 0.00 | 0.00 | 20 | 1015.5 |
| 20260903211631 | 95 | 294 | 2.0 | 8.0 | 0.00 | 0.00 | 0.00 | 21 | 1015.9 |
| 20260903210126 | 95 | 258 | 2.0 | 15.0 | 0.00 | 0.00 | 0.00 | 20 | 1016.1 |
| 20260903204640 | 95 | 231 | 1.0 | 4.0 | 0.00 | 0.00 | 0.00 | 19 | 1016.2 |
| 20260903203135 | 95 | 277 | 5.0 | 12.0 | 0.00 | 0.00 | 0.00 | 20 | 1016.4 |
| 20260903201646 | 94 | 158 | 4.0 | 11.0 | 0.00 | 0.00 | 0.00 | 21 | 1016.4 |
| 20260903200138 | 95 | 256 | 4.0 | 8.0 | 0.00 | 0.00 | 0.00 | 20 | 1016.5 |
| 20260903194633 | 94 | 314 | 3.0 | 7.0 | 0.00 | 0.00 | 0.00 | 22 | 1016.7 |
| 20260903193145 | 94 | 293 | 3.0 | 6.0 | 0.00 | 0.00 | 0.00 | 22 | 1016.8 |
| 20260903191641 | 93 | 263 | 4.0 | 9.0 | 0.00 | 0.00 | 0.00 | 22 | 1017.2 |
| 20260903190133 | 93 | 327 | 5.0 | 14.0 | 0.00 | 0.00 | 0.00 | 23 | 1017.4 |
| 20260903184645 | 92 | 73 | 2.0 | 5.0 | 0.00 | 0.00 | 0.00 | 23 | 1017.8 |
| 20260903183140 | 92 | 277 | 3.0 | 9.0 | 0.00 | 0.00 | 0.00 | 23 | 1018.2 |
| 20260903181632 | 92 | 120 | 1.0 | 6.0 | 0.00 | 0.00 | 0.00 | 24 | 1018.5 |
| 20260903180128 | 90 | 66 | 0.0 | 6.0 | 0.00 | 0.00 | 0.00 | 26 | 1018.8 |
| 20260903174639 | 90 | 268 | 1.0 | 5.0 | 0.00 | 0.00 | 0.00 | 26 | 1019.0 |
| 20260903173150 | 89 | 112 | 0.0 | 4.0 | 0.00 | 0.00 | 0.00 | 27 | 1019.1 |
| 20260903171626 | 89 | 139 | 2.0 | 4.0 | 0.00 | 0.00 | 0.00 | 29 | 1019.1 |
| 20260903170139 | 88 | 293 | 0.0 | 3.0 | 0.00 | 0.00 | 0.00 | 31 | 1019.1 |
| 20260903164634 | 86 | 73 | 2.0 | 4.0 | 0.00 | 0.00 | 0.00 | 32 | 1019.2 |
| 20260903163126 | 85 | 278 | 1.0 | 3.0 | 0.00 | 0.00 | 0.00 | 34 | 1019.2 |
| 20260903161621 | 84 | 140 | 3.0 | 6.0 | 0.00 | 0.00 | 0.00 | 36 | 1019.3 |
| 20260903160155 | 83 | 225 | 3.0 | 7.0 | 0.00 | 0.00 | 0.00 | 37 | 1019.4 |
| 20260903154627 | 82 | 236 | 5.0 | 8.0 | 0.00 | 0.00 | 0.00 | 39 | 1019.4 |
| 20260903153144 | 82 | 199 | 6.0 | 10.0 | 0.00 | 0.00 | 0.00 | 40 | 1019.3 |
| 20260903151635 | 81 | 156 | 7.0 | 10.0 | 0.00 | 0.00 | 0.00 | 41 | 1019.4 |
| 20260903150128 | 80 | 130 | 9.0 | 15.0 | 0.00 | 0.00 | 0.00 | 43 | 1019.5 |
| 20260903144620 | 79 | 161 | 9.0 | 15.0 | 0.00 | 0.00 | 0.00 | 44 | 1019.6 |
| 20260903143132 | 77 | 162 | 8.0 | 13.0 | 0.00 | 0.00 | 0.00 | 46 | 1019.3 |
| 20260903141629 | 77 | 128 | 8.0 | 12.0 | 0.00 | 0.00 | 0.00 | 47 | 1019.2 |
| 20260903140120 | 76 | 125 | 8.0 | 15.0 | 0.00 | 0.00 | 0.00 | 46 | 1019.2 |
| 20260903134635 | 76 | 146 | 8.0 | 13.0 | 0.00 | 0.00 | 0.00 | 46 | 1019.0 |
| 20260903133127 | 76 | 194 | 5.0 | 9.0 | 0.00 | 0.00 | 0.00 | 46 | 1018.9 |
| 20260903131623 | 74 | 137 | 4.0 | 8.0 | 0.00 | 0.00 | 0.00 | 48 | 1018.7 |
| 20260903130136 | 73 | 125 | 5.0 | 9.0 | 0.00 | 0.00 | 0.00 | 48 | 1018.5 |
| 20260903124626 | 73 | 128 | 4.0 | 7.0 | 0.00 | 0.00 | 0.00 | 49 | 1018.2 |
| 20260903123123 | 73 | 139 | 2.0 | 7.0 | 0.00 | 0.00 | 0.00 | 49 | 1018.1 |
| 20260903121633 | 73 | 123 | 4.0 | 8.0 | 0.00 | 0.00 | 0.00 | 49 | 1018.0 |
| 20260903120130 | 74 | 129 | 4.0 | 9.0 | 0.00 | 0.00 | 0.00 | 48 | 1017.8 |
| 20260903114621 | 74 | 126 | 5.0 | 9.0 | 0.00 | 0.00 | 0.00 | 47 | 1017.7 |
| 20260903113134 | 75 | 156 | 7.0 | 10.0 | 0.00 | 0.00 | 0.00 | 45 | 1017.5 |
| 20260903111649 | 75 | 163 | 7.0 | 11.0 | 0.00 | 0.00 | 0.00 | 41 | 1017.3 |
| 20260903110121 | 76 | 158 | 5.0 | 12.0 | 0.00 | 0.00 | 0.00 | 39 | 1017.2 |
| 20260903104636 | 76 | 161 | 5.0 | 10.0 | 0.00 | 0.00 | 0.00 | 38 | 1017.3 |
| 20260903103129 | 76 | 187 | 3.0 | 6.0 | 0.00 | 0.00 | 0.00 | 38 | 1017.2 |
| 20260903101625 | 77 | 158 | 5.0 | 8.0 | 0.00 | 0.00 | 0.00 | 38 | 1017.2 |
| 20260903100136 | 77 | 156 | 4.0 | 6.0 | 0.00 | 0.00 | 0.00 | 38 | 1017.4 |
| 20260903094627 | 77 | 142 | 4.0 | 6.0 | 0.00 | 0.00 | 0.00 | 38 | 1017.3 |
| 20260903093122 | 76 | 190 | 2.0 | 4.0 | 0.00 | 0.00 | 0.00 | 40 | 1017.3 |
| 20260903091655 | 76 | 144 | 1.0 | 3.0 | 0.00 | 0.00 | 0.00 | 39 | 1017.1 |
| 20260903090130 | 76 | 152 | 0.0 | 3.0 | 0.00 | 0.00 | 0.00 | 39 | 1017.0 |
| 20260903084623 | 77 | 144 | 0.0 | 1.0 | 0.00 | 0.00 | 0.00 | 38 | 1017.0 |
| 20260903083155 | 78 | 132 | 2.0 | 5.0 | 0.00 | 0.00 | 0.00 | 37 | 1016.9 |
| 20260903081629 | 79 | 135 | 3.0 | 5.0 | 0.00 | 0.00 | 0.00 | 36 | 1016.9 |
| 20260903080122 | 80 | 156 | 2.0 | 6.0 | 0.00 | 0.00 | 0.00 | 35 | 1017.1 |
| 20260903074636 | 80 | 143 | 3.0 | 6.0 | 0.00 | 0.00 | 0.00 | 34 | 1017.2 |
| 20260903073128 | 81 | 169 | 1.0 | 6.0 | 0.00 | 0.00 | 0.00 | 33 | 1017.2 |
| 20260903071623 | 81 | 148 | 2.0 | 6.0 | 0.00 | 0.00 | 0.00 | 34 | 1017.1 |
| 20260903070135 | 83 | 157 | 3.0 | 7.0 | 0.00 | 0.00 | 0.00 | 32 | 1017.1 |
| 20260903064626 | 83 | 161 | 2.0 | 5.0 | 0.00 | 0.00 | 0.00 | 32 | 1017.1 |
| 20260903063121 | 84 | 120 | 4.0 | 6.0 | 0.00 | 0.00 | 0.00 | 31 | 1017.1 |
| 20260903061653 | 85 | 129 | 6.0 | 12.0 | 0.00 | 0.00 | 0.00 | 30 | 1017.2 |
| 20260903060127 | 84 | 139 | 6.0 | 12.0 | 0.00 | 0.00 | 0.00 | 31 | 1017.3 |
| 20260903054659 | 83 | 118 | 7.0 | 10.0 | 0.00 | 0.00 | 0.00 | 32 | 1017.3 |
| 20260903053150 | 80 | 131 | 2.0 | 6.0 | 0.00 | 0.00 | 0.00 | 35 | 1017.6 |
| 20260903051624 | 79 | 155 | 0.0 | 1.0 | 0.00 | 0.00 | 0.00 | 35 | 1017.3 |
| 20260903050138 | 80 | 180 | 0.0 | 0.0 | 0.00 | 0.00 | 0.00 | 35 | 1017.5 |
| 20260903044633 | 80 | 181 | 0.0 | 1.0 | 0.00 | 0.00 | 0.00 | 34 | 1017.4 |
| 20260903043126 | 81 | 210 | 0.0 | 0.0 | 0.00 | 0.00 | 0.00 | 34 | 1017.4 |